TimeEST,TemperatureF,Dew PointF,Humidity,Sea Level PressureIn,VisibilityMPH,Wind Direction,Wind SpeedMPH,Gust SpeedMPH,PrecipitationIn,Events,Conditions,WindDirDegrees,DateUTC
12:53 AM,64.9,62.1,90,30.25,10.0,ENE,4.6,-,N/A,,Partly Cloudy,70,2012-11-12 05:53:00
1:53 AM,64.0,62.1,93,30.25,10.0,Calm,Calm,-,N/A,,Overcast,0,2012-11-12 06:53:00
2:53 AM,63.0,62.1,97,30.24,10.0,Calm,Calm,-,N/A,,Partly Cloudy,0,2012-11-12 07:53:00
3:53 AM,62.1,61.0,96,30.23,9.0,Calm,Calm,-,N/A,,Clear,0,2012-11-12 08:53:00
4:45 AM,60.8,60.8,100,30.23,1.5,Calm,Calm,-,N/A,,Partly Cloudy,0,2012-11-12 09:45:00
4:53 AM,61.0,60.1,97,30.22,0.8,Calm,Calm,-,N/A,,Scattered Clouds,0,2012-11-12 09:53:00
4:59 AM,62.6,60.8,94,30.22,2.5,Calm,Calm,-,N/A,,Partly Cloudy,0,2012-11-12 09:59:00
5:21 AM,60.8,60.8,100,30.23,2.5,Calm,Calm,-,N/A,,Clear,0,2012-11-12 10:21:00
5:30 AM,60.8,60.8,100,30.23,7.0,Calm,Calm,-,N/A,,Clear,0,2012-11-12 10:30:00
5:53 AM,60.1,60.1,100,30.23,3.0,Calm,Calm,-,N/A,,Partly Cloudy,0,2012-11-12 10:53:00
7:11 AM,60.8,60.8,100,30.25,2.0,Calm,Calm,-,N/A,,Clear,0,2012-11-12 12:11:00
7:20 AM,60.8,60.8,100,30.25,6.0,Calm,Calm,-,N/A,,Partly Cloudy,0,2012-11-12 12:20:00
7:53 AM,64.0,63.0,96,30.26,9.0,Calm,Calm,-,N/A,,Overcast,0,2012-11-12 12:53:00
8:53 AM,72.0,64.9,78,30.27,10.0,East,3.5,-,N/A,,Clear,90,2012-11-12 13:53:00
9:53 AM,73.9,64.9,73,30.27,10.0,ESE,6.9,-,N/A,,Mostly Cloudy,120,2012-11-12 14:53:00
10:53 AM,77.0,64.0,64,30.27,10.0,ESE,6.9,-,N/A,,Mostly Cloudy,110,2012-11-12 15:53:00
11:53 AM,79.0,64.0,60,30.26,10.0,ESE,8.1,-,N/A,,Partly Cloudy,110,2012-11-12 16:53:00
12:53 PM,81.0,62.1,52,30.22,10.0,ESE,5.8,-,N/A,,Mostly Cloudy,120,2012-11-12 17:53:00
1:53 PM,81.0,63.0,54,30.20,10.0,ENE,6.9,-,N/A,,Mostly Cloudy,70,2012-11-12 18:53:00
2:53 PM,81.0,63.0,54,30.19,10.0,ESE,6.9,-,N/A,,Clear,120,2012-11-12 19:53:00
3:53 PM,78.1,63.0,60,30.19,10.0,ESE,10.4,-,N/A,,Scattered Clouds,120,2012-11-12 20:53:00
4:53 PM,77.0,64.0,64,30.19,10.0,East,6.9,-,N/A,,Partly Cloudy,90,2012-11-12 21:53:00
5:53 PM,73.9,64.9,73,30.19,10.0,East,6.9,-,N/A,,Partly Cloudy,90,2012-11-12 22:53:00
6:53 PM,72.0,64.9,78,30.20,10.0,East,5.8,-,N/A,,Clear,90,2012-11-12 23:53:00
7:53 PM,71.1,64.9,81,30.22,10.0,East,3.5,-,N/A,,Clear,100,2012-11-13 00:53:00
8:53 PM,69.1,64.9,87,30.21,10.0,East,3.5,-,N/A,,Clear,100,2012-11-13 01:53:00
9:53 PM,66.0,63.0,90,30.21,10.0,ENE,3.5,-,N/A,,Clear,60,2012-11-13 02:53:00
10:53 PM,66.0,64.0,93,30.21,10.0,Calm,Calm,-,N/A,,Clear,0,2012-11-13 03:53:00
11:53 PM,64.9,63.0,93,30.19,10.0,Calm,Calm,-,N/A,,Clear,0,2012-11-13 04:53:00